Mallard — WDJ6592 — position and weather

sailwx.info

Track history (hours):
 
Tides and Currents Weather Stations Pressure Air Temp Water Temp Dewpoint Dewpoint Depression Visibility Wind Speed Wind Dir Waves Ship Positions

Mallard

Owner: Kirby Inland Marine LP, Houston, TX. More information available from US FCC via Universal Licensing System and Coast Guard Vessel Documentation Center.

Last reported at 2018-Feb-20 23:01 UTC. Time now 2018-Feb-20 23:24 UTC.
Position N 30°03' W 093°16'.

Length 108 m; draft 2.1 m.

Type: . MMSI: 367799320.

Date/timePositionNaut miles runAvg speedWind from/ knotsBaromVisibWave heightAir tempDewpointWater temp
2018-Feb-20 23:01N 30°03' W 093°16'2 3.8
2018-Feb-20 22:30N 30°02' W 093°14'2 4.1
2018-Feb-20 22:00N 29°60' W 093°13'2 4.3
2018-Feb-20 21:30N 29°58' W 093°12'2 4.3
2018-Feb-20 21:00N 29°57' W 093°10'2 3.9
2018-Feb-20 20:30N 29°56' W 093°08'40 3.2
2018-Feb-20 07:46N 29°51' W 092°22'1 3.6
2018-Feb-20 07:30N 29°51' W 092°21'2 3.7
2018-Feb-20 07:01N 29°50' W 092°19'2 3.6
2018-Feb-20 06:30N 29°49' W 092°17'2 3.9
2018-Feb-20 06:00N 29°48' W 092°15'2 3.1
2018-Feb-20 05:31N 29°48' W 092°14'1 2.4
2018-Feb-20 05:00N 29°47' W 092°12'2 3.5
2018-Feb-20 04:30N 29°47' W 092°10'2 4.3
2018-Feb-20 04:00N 29°47' W 092°08'2 3.9
2018-Feb-20 03:30N 29°48' W 092°06'2 3.8
2018-Feb-20 03:01N 29°48' W 092°04'2 4.2
2018-Feb-20 02:31N 29°49' W 092°02'2 4.5
2018-Feb-20 02:00N 29°50' W 091°59'58 3.9
2018-Feb-19 11:10N 29°34' W 090°55'1 4.3
2018-Feb-19 11:00N 29°33' W 090°55'3 4.1
2018-Feb-19 10:13N 29°32' W 090°51'1 4.3
2018-Feb-19 10:00N 29°32' W 090°50'2 3.7
2018-Feb-19 09:30N 29°32' W 090°48'2 3.5
2018-Feb-19 09:00N 29°32' W 090°46'2 3.5
2018-Feb-19 08:30N 29°34' W 090°45'2 3.5
2018-Feb-19 08:00N 29°34' W 090°43'2 3.4
2018-Feb-19 07:30N 29°36' W 090°43'1 2.6
2018-Feb-19 07:01N 29°36' W 090°41'2 3.7
2018-Feb-19 06:30N 29°36' W 090°39'2 3.8
2018-Feb-19 06:00N 29°35' W 090°37'2 3.6
2018-Feb-19 05:30N 29°35' W 090°35'2 3.5
2018-Feb-19 05:00N 29°34' W 090°34'2 3.8
2018-Feb-19 04:30N 29°34' W 090°31'2 3.9
2018-Feb-19 03:57N 29°34' W 090°29'  
2018-Feb-12 11:56N 29°33' W 090°24'2 5.3
2018-Feb-12 11:29N 29°33' W 090°27'3 5.2
2018-Feb-12 11:00N 29°34' W 090°30'3 5.1
2018-Feb-12 10:30N 29°34' W 090°33'2 5.0
2018-Feb-12 10:00N 29°35' W 090°36'3 5.4
2018-Feb-12 09:30N 29°35' W 090°39'3 5.0
2018-Feb-12 08:59N 29°37' W 090°41'1 2.9
2018-Feb-12 08:30N 29°36' W 090°43'2 4.1
2018-Feb-12 08:00N 29°34' W 090°44'1 2.9
2018-Feb-12 07:30N 29°33' W 090°45'0 0.0
2018-Feb-12 07:00N 29°33' W 090°45'0 0.0
2018-Feb-12 06:30N 29°33' W 090°45'0 0.0
2018-Feb-12 06:00N 29°33' W 090°45'0 0.5
2018-Feb-12 05:31N 29°33' W 090°45'0 0.1
2018-Feb-12 05:00N 29°33' W 090°45'0 0.0
2018-Feb-12 04:30N 29°33' W 090°45'0 0.0
2018-Feb-12 04:00N 29°33' W 090°45'0 0.0
2018-Feb-12 03:30N 29°33' W 090°45'0 0.0
2018-Feb-12 02:57N 29°33' W 090°45'0 0.0
2018-Feb-12 02:30N 29°33' W 090°45'2 3.4
2018-Feb-12 02:00N 29°32' W 090°47'3 5.2
2018-Feb-12 01:29N 29°32' W 090°50'  
Track history (hours):
 
Tides and Currents Weather Stations Pressure Air Temp Water Temp Dewpoint Dewpoint Depression Visibility Wind Speed Wind Dir Waves Ship Positions

Mallard

Owner: Kirby Inland Marine LP, Houston, TX. More information available from US FCC via Universal Licensing System and Coast Guard Vessel Documentation Center.

Last reported at 2018-Feb-20 23:01 UTC. Time now 2018-Feb-20 23:24 UTC.
Position N 30°03' W 093°16'.

Length 108 m; draft 2.1 m.

Type: . MMSI: 367799320.

Date/timePositionNaut miles runAvg speedWind from/ knotsBaromVisibWave heightAir tempDewpointWater temp
2018-Feb-20 23:01N 30°03' W 093°16'2 3.8
2018-Feb-20 22:30N 30°02' W 093°14'2 4.1
2018-Feb-20 22:00N 29°60' W 093°13'2 4.3
2018-Feb-20 21:30N 29°58' W 093°12'2 4.3
2018-Feb-20 21:00N 29°57' W 093°10'2 3.9
2018-Feb-20 20:30N 29°56' W 093°08'40 3.2
2018-Feb-20 07:46N 29°51' W 092°22'1 3.6
2018-Feb-20 07:30N 29°51' W 092°21'2 3.7
2018-Feb-20 07:01N 29°50' W 092°19'2 3.6
2018-Feb-20 06:30N 29°49' W 092°17'2 3.9
2018-Feb-20 06:00N 29°48' W 092°15'2 3.1
2018-Feb-20 05:31N 29°48' W 092°14'1 2.4
2018-Feb-20 05:00N 29°47' W 092°12'2 3.5
2018-Feb-20 04:30N 29°47' W 092°10'2 4.3
2018-Feb-20 04:00N 29°47' W 092°08'2 3.9
2018-Feb-20 03:30N 29°48' W 092°06'2 3.8
2018-Feb-20 03:01N 29°48' W 092°04'2 4.2
2018-Feb-20 02:31N 29°49' W 092°02'2 4.5
2018-Feb-20 02:00N 29°50' W 091°59'58 3.9
2018-Feb-19 11:10N 29°34' W 090°55'1 4.3
2018-Feb-19 11:00N 29°33' W 090°55'3 4.1
2018-Feb-19 10:13N 29°32' W 090°51'1 4.3
2018-Feb-19 10:00N 29°32' W 090°50'2 3.7
2018-Feb-19 09:30N 29°32' W 090°48'2 3.5
2018-Feb-19 09:00N 29°32' W 090°46'2 3.5
2018-Feb-19 08:30N 29°34' W 090°45'2 3.5
2018-Feb-19 08:00N 29°34' W 090°43'2 3.4
2018-Feb-19 07:30N 29°36' W 090°43'1 2.6
2018-Feb-19 07:01N 29°36' W 090°41'2 3.7
2018-Feb-19 06:30N 29°36' W 090°39'2 3.8
2018-Feb-19 06:00N 29°35' W 090°37'2 3.6
2018-Feb-19 05:30N 29°35' W 090°35'2 3.5
2018-Feb-19 05:00N 29°34' W 090°34'2 3.8
2018-Feb-19 04:30N 29°34' W 090°31'2 3.9
2018-Feb-19 03:57N 29°34' W 090°29'  
2018-Feb-12 11:56N 29°33' W 090°24'2 5.3
2018-Feb-12 11:29N 29°33' W 090°27'3 5.2
2018-Feb-12 11:00N 29°34' W 090°30'3 5.1
2018-Feb-12 10:30N 29°34' W 090°33'2 5.0
2018-Feb-12 10:00N 29°35' W 090°36'3 5.4
2018-Feb-12 09:30N 29°35' W 090°39'3 5.0
2018-Feb-12 08:59N 29°37' W 090°41'1 2.9
2018-Feb-12 08:30N 29°36' W 090°43'2 4.1
2018-Feb-12 08:00N 29°34' W 090°44'1 2.9
2018-Feb-12 07:30N 29°33' W 090°45'0 0.0
2018-Feb-12 07:00N 29°33' W 090°45'0 0.0
2018-Feb-12 06:30N 29°33' W 090°45'0 0.0
2018-Feb-12 06:00N 29°33' W 090°45'0 0.5
2018-Feb-12 05:31N 29°33' W 090°45'0 0.1
2018-Feb-12 05:00N 29°33' W 090°45'0 0.0
2018-Feb-12 04:30N 29°33' W 090°45'0 0.0
2018-Feb-12 04:00N 29°33' W 090°45'0 0.0
2018-Feb-12 03:30N 29°33' W 090°45'0 0.0
2018-Feb-12 02:57N 29°33' W 090°45'0 0.0
2018-Feb-12 02:30N 29°33' W 090°45'2 3.4
2018-Feb-12 02:00N 29°32' W 090°47'3 5.2
2018-Feb-12 01:29N 29°32' W 090°50'  

Dump ship's entire track history